Regional Weather Roundup
Issued by NWS

Home | Current Version | Previous Version | Text Only | Print | Product List | Glossary Off
Versions: 1 2 3 4 5 6 7 8 9 10 11 12 13 14 15 16 17 18 19 20 21 22 23 24 25 26 27 28 29 30 31 32 33 34 35 36 37 38 39 40 41 42 43 44 45 46 47 48 49 50

000
ASUS43 KTOP 292159
RWRKS

WEATHER ROUNDUP FOR KANSAS
NATIONAL WEATHER SERVICE GOODLAND KS
500 PM CDT WED MAR 29 2017

NOTE:  "FAIR" INDICATES FEW OR NO CLOUDS BELOW 12,000 FEET WITH NO
SIGNIFICANT WEATHER AND/OR OBSTRUCTIONS TO VISIBILITY.

KSZ001>006-013>018-027>032-041>047-292300-
NORTHWEST KANSAS

CITY           SKY/WX    TMP DP  RH WIND       PRES   REMARKS
GOODLAND       CLOUDY    43  39  86 N22G29    29.91F
HAYS             N/A     44  40  85 N31       29.75S
HILL CITY      LGT RAIN  42  40  92 N28G38    29.85R FOG
RUSSELL        LGT RAIN  43  41  93 N28G35    29.72S
$$

KSZ061>065-074>080-084>089-292300-
SOUTHWEST KANSAS

CITY           SKY/WX    TMP DP  RH WIND       PRES   REMARKS
DODGE CITY     LGT RAIN  41  39  93 N29G41    29.80R FOG
ELKHART          N/A     43  33  68 N20         N/A
GARDEN CITY    LGT RAIN  41  39  93 N21G30    29.86R
GREAT BEND     LGT RAIN  44  42  93 N30G40    29.69S FOG
LIBERAL        CLOUDY    45  37  76 N24G30    29.88S
$$

KSZ066>073-081>083-090>101-292300-
SOUTHEAST KANSAS

CITY           SKY/WX    TMP DP  RH WIND       PRES   REMARKS
CHANUTE        MOSUNNY   67  55  65 SW17      29.63S
COFFEYVILLE    MOSUNNY   66  54  65 SW15G23   29.64S
HUTCHINSON     RAIN      46  44  93 N20G30    29.60S FOG
MEDICINE LODGE   N/A     47  44  90 N23G37    29.62R
NEWTON         LGT RAIN  52  51  97 N9        29.59S
PARSONS        PTSUNNY   65  55  70 SW14      29.65S
WICHITA INTL   CLOUDY    57  50  77 S18       29.58R
WICHITA JABRA  CLOUDY    58  50  75 S16       29.57F
WICHITA MCCONL CLOUDY    57  50  77 SW22      29.58S
WINFIELD       CLOUDY    58  49  72 S21G32    29.62R
$$

KSZ007>012-019>026-033>040-048>060-102>105-292300-
NORTHEAST KANSAS

CITY           SKY/WX    TMP DP  RH WIND       PRES   REMARKS
CONCORDIA      LGT RAIN  44  43  96 NE15G31   29.72S
EMPORIA        SUNNY     67  56  67 S18       29.59F
LAWRENCE       CLOUDY    58  57  97 NE16G24   29.63R FOG
MANHATTAN      CLOUDY    50  50 100 NE15G23   29.64S
OLATHE IND     TSTM      61  55  81 S17G45    29.64R
OLATHE EXE     MOSUNNY   63  59  87 E12G23    29.61F THUNDER
SALINA         LGT RAIN  47  45  93 N16       29.67R FOG
TOPEKA BILLARD LGT RAIN  59  57  93 NE12      29.63F
TOPEKA FORBES  PTSUNNY   60  57  89 NE12      29.62F
$$




USA.gov is the U.S. government's official web portal to all federal, state and local government web resources and services.